DW3331 Weather Reports


time (UTC)temp
C
wind
direction
speed
KPH
gust
KPH
rain 1hr
cm
rain 24hr
cm
rain mn
cm
humidity
%
barometer
mb
20260504031005 6 0 0.0 0.0 0.00 0.00 0.00 69 1012.4
20260504030526 6 261 0.0 1.6 0.00 0.00 0.00 67 1012.5
20260504030025 6 261 0.0 1.6 0.00 0.00 0.00 66 1012.5
20260504025505 6 0 0.0 0.0 0.00 0.00 0.00 66 1012.4
20260504025025 6 0 0.0 0.0 0.00 0.00 0.00 65 1012.5
20260504024505 7 0 0.0 0.0 0.00 0.00 0.00 64 1012.5
20260504024004 7 0 0.0 0.0 0.00 0.00 0.00 63 1012.5
20260504023506 7 0 0.0 0.0 0.00 0.00 0.00 63 1012.5
20260504023005 7 0 0.0 0.0 0.00 0.00 0.00 61 1012.4
20260504022504 7 0 0.0 0.0 0.00 0.00 0.00 61 1012.5
20260504022004 8 0 0.0 0.0 0.00 0.00 0.00 61 1012.5
20260504021525 8 0 0.0 0.0 0.00 0.00 0.00 60 1012.6
20260504021004 8 0 0.0 0.0 0.00 0.00 0.00 59 1012.5
20260504020504 8 0 0.0 0.0 0.00 0.00 0.00 57 1012.4
20260504020004 8 260 1.6 1.6 0.00 0.00 0.00 57 1012.5
20260504015505 8 260 0.0 1.6 0.00 0.00 0.00 57 1012.4
20260504015004 9 261 0.0 1.6 0.00 0.00 0.00 56 1012.3
20260504014527 9 259 0.0 1.6 0.00 0.00 0.00 55 1012.4
20260504014004 9 263 0.0 3.2 0.00 0.00 0.00 54 1012.3
20260504013505 10 263 0.0 3.2 0.00 0.00 0.00 54 1012.3
20260504013005 10 261 0.0 1.6 0.00 0.00 0.00 53 1012.2
20260504012504 10 252 0.0 1.6 0.00 0.00 0.00 52 1012.1
20260504012026 10 247 0.0 4.8 0.00 0.00 0.00 52 1012.1
20260504011505 10 241 0.0 4.8 0.00 0.00 0.00 52 1012.0
20260504011025 10 237 0.0 4.8 0.00 0.00 0.00 51 1012.1
20260504010504 10 234 1.6 4.8 0.00 0.00 0.00 50 1012.1
20260504010005 11 243 1.6 4.8 0.00 0.00 0.00 50 1012.1
20260504005505 11 247 0.0 4.8 0.00 0.00 0.00 49 1012.1
20260504005004 11 248 0.0 3.2 0.00 0.00 0.00 49 1012.1
20260504004505 11 248 0.0 3.2 0.00 0.00 0.00 48 1012.0
20260504004005 11 252 0.0 3.2 0.00 0.00 0.00 48 1012.0
20260504003504 11 254 0.0 1.6 0.00 0.00 0.00 47 1011.9
20260504003004 11 254 0.0 1.6 0.00 0.00 0.00 47 1011.9
20260504002505 12 253 1.6 3.2 0.00 0.00 0.00 46 1011.9
20260504002004 12 258 1.6 4.8 0.00 0.00 0.00 46 1011.9
20260504001504 12 259 1.6 4.8 0.00 0.00 0.00 45 1011.9
20260504001004 12 258 1.6 4.8 0.00 0.00 0.00 45 1011.9
20260504000504 12 249 3.2 8.0 0.00 0.00 0.00 45 1011.8
20260504000025 12 244 4.8 9.7 0.00 0.00 0.00 44 1011.8
20260503235504 12 248 4.8 9.7 0.00 0.00 0.00 44 1011.8
20260503235025 12 247 4.8 9.7 0.00 0.00 0.00 44 1011.8
20260503234526 12 243 4.8 9.7 0.00 0.00 0.00 44 1011.8
20260503234004 12 243 6.4 9.7 0.00 0.00 0.00 42 1011.8
20260503233505 13 247 4.8 11.3 0.00 0.00 0.00 42 1011.8
20260503233005 13 247 4.8 11.3 0.00 0.00 0.00 42 1011.9
20260503232504 13 246 4.8 11.3 0.00 0.00 0.00 42 1011.8
20260503232025 13 244 6.4 16.1 0.00 0.00 0.00 42 1011.9
20260503231504 13 256 6.4 17.7 0.00 0.00 0.00 42 1011.9
20260503231005 13 253 6.4 17.7 0.00 0.00 0.00 41 1011.9
20260503230505 13 241 6.4 11.3 0.00 0.00 0.00 42 1011.9
20260503230005 13 251 8.0 12.9 0.00 0.00 0.00 41 1011.9
20260503225505 13 247 8.0 22.5 0.00 0.00 0.00 41 1011.9
20260503225005 13 239 8.0 22.5 0.00 0.00 0.00 40 1011.9
20260503224504 13 243 6.4 16.1 0.00 0.00 0.00 41 1011.9
20260503224005 13 249 6.4 16.1 0.00 0.00 0.00 41 1011.9
20260503223504 13 250 8.0 16.1 0.00 0.00 0.00 41 1011.9
20260503223026 13 242 8.0 19.3 0.00 0.00 0.00 41 1011.8
20260503222505 13 239 8.0 19.3 0.00 0.00 0.00 41 1011.8
20260503222004 13 242 8.0 27.4 0.00 0.00 0.00 41 1011.8
20260503221504 13 258 8.0 27.4 0.00 0.00 0.00 42 1011.9
20260503221005 13 253 8.0 20.9 0.00 0.00 0.00 42 1011.8
20260503220504 13 242 9.7 20.9 0.00 0.00 0.00 41 1011.9
20260503220004 13 254 9.7 22.5 0.00 0.00 0.00 41 1011.9
20260503215504 13 261 6.4 22.5 0.00 0.00 0.00 40 1011.8
20260503215004 13 262 4.8 17.7 0.00 0.00 0.00 42 1011.8
20260503214504 13 240 6.4 14.5 0.00 0.00 0.00 44 1011.9
20260503214026 13 241 6.4 14.5 0.00 0.00 0.00 42 1011.9
20260503213505 13 256 8.0 19.3 0.00 0.00 0.00 42 1011.9
20260503213026 13 255 9.7 19.3 0.00 0.00 0.00 42 1011.9
20260503212505 13 253 9.7 16.1 0.00 0.00 0.00 41 1011.9
20260503212005 13 263 8.0 17.7 0.00 0.00 0.00 41 1011.9
20260503211505 13 271 6.4 17.7 0.00 0.00 0.00 41 1012.0
20260503211005 13 267 6.4 11.3 0.00 0.00 0.00 42 1011.9
20260503210505 13 273 6.4 14.5 0.00 0.00 0.00 42 1011.9
20260503210005 14 262 6.4 14.5 0.00 0.00 0.00 41 1011.9
20260503205505 14 259 8.0 17.7 0.00 0.00 0.00 43 1012.0
20260503205025 13 266 9.7 22.5 0.00 0.00 0.00 40 1011.9
20260503204505 13 266 9.7 22.5 0.00 0.00 0.00 41 1012.0
20260503204026 13 276 9.7 27.4 0.00 0.00 0.00 42 1012.0
20260503203504 13 273 9.7 27.4 0.00 0.00 0.00 40 1012.0
20260503203004 13 253 9.7 22.5 0.00 0.00 0.00 41 1012.0
20260503202504 14 249 8.0 22.5 0.00 0.00 0.00 44 1012.1
20260503202005 14 244 6.4 20.9 0.00 0.00 0.00 42 1012.2
20260503201504 14 254 8.0 17.7 0.00 0.00 0.00 43 1012.3
20260503201004 14 268 8.0 17.7 0.00 0.00 0.00 44 1012.3
20260503200525 14 263 8.0 17.7 0.00 0.00 0.00 40 1012.4
20260503200004 14 256 8.0 20.9 0.00 0.00 0.00 41 1012.5
20260503195505 14 252 8.0 20.9 0.00 0.00 0.00 41 1012.4
20260503195005 15 242 8.0 17.7 0.00 0.00 0.00 42 1012.5
20260503194504 15 245 6.4 17.7 0.00 0.00 0.00 43 1012.6
20260503194004 14 245 6.4 17.7 0.00 0.00 0.00 44 1012.7
20260503193504 14 241 8.0 16.1 0.00 0.00 0.00 41 1012.7
20260503193005 14 272 8.0 19.3 0.00 0.00 0.00 40 1012.7
20260503192504 14 265 8.0 19.3 0.00 0.00 0.00 41 1012.8
20260503192005 14 245 8.0 17.7 0.00 0.00 0.00 44 1013.0
20260503191504 14 265 9.7 19.3 0.00 0.00 0.00 39 1013.0
20260503191005 14 276 9.7 19.3 0.00 0.00 0.00 43 1013.1
20260503190504 14 271 8.0 17.7 0.00 0.00 0.00 43 1013.1
20260503190005 14 267 8.0 17.7 0.00 0.00 0.00 40 1013.2
20260503185504 14 265 8.0 17.7 0.00 0.00 0.00 45 1013.2
20260503185026 13 264 11.3 19.3 0.00 0.00 0.00 45 1013.4
20260503184504 13 279 12.9 22.5 0.00 0.00 0.00 44 1013.5
20260503184004 13 281 9.7 24.1 0.00 0.00 0.00 40 1013.6
20260503183505 13 271 9.7 24.1 0.00 0.00 0.00 44 1013.6
20260503183005 13 267 9.7 20.9 0.00 0.00 0.00 44 1013.6
20260503182526 13 261 9.7 20.9 0.00 0.00 0.00 43 1013.7
20260503182006 13 251 9.7 20.9 0.00 0.00 0.00 44 1013.7
20260503181505 12 237 9.7 20.9 0.00 0.00 0.00 45 1013.8
20260503181005 13 233 8.0 20.9 0.00 0.00 0.00 45 1013.7
20260503180505 13 252 9.7 17.7 0.00 0.00 0.00 43 1013.7
20260503180005 13 264 9.7 17.7 0.00 0.00 0.00 46 1013.8
20260503175525 13 274 11.3 25.7 0.00 0.00 0.00 43 1013.8
20260503175025 13 289 11.3 25.7 0.00 0.00 0.00 40 1013.8
20260503174525 13 297 9.7 24.1 0.00 0.00 0.00 44 1013.9
20260503174004 13 286 8.0 24.1 0.00 0.00 0.00 40 1013.9
20260503173526 13 272 6.4 20.9 0.00 0.00 0.00 43 1014.0
20260503173005 13 256 6.4 16.1 0.00 0.00 0.00 47 1013.9
20260503172504 12 237 8.0 19.3 0.00 0.00 0.00 42 1014.0
20260503172004 12 229 6.4 24.1 0.00 0.00 0.00 48 1014.1
20260503171504 12 240 6.4 24.1 0.00 0.00 0.00 46 1014.2
20260503171005 11 266 8.0 16.1 0.00 0.00 0.00 47 1014.2
20260503170504 11 268 9.7 19.3 0.00 0.00 0.00 44 1014.2
20260503151005 10 254 6.4 20.9 0.00 0.00 0.00 51 1015.1
20260503150504 10 248 6.4 20.9 0.00 0.00 0.00 50 1015.2
20260503131026 5 215 6.4 12.9 0.00 0.00 0.00 80 1015.6
20260503130505 5 215 3.2 12.9 0.00 0.00 0.00 82 1015.6
20260503110504 -2 0 0.0 0.0 0.00 0.00 0.00 91 1015.3
20260503090504 -1 0 0.0 0.0 0.00 0.00 0.00 88 1014.5
20260503081504 -1 0 0.0 0.0 0.00 0.00 0.00 85 1014.3
20260503081004 -1 0 0.0 0.0 0.00 0.00 0.00 85 1014.4
20260503080504 -1 0 0.0 0.0 0.00 0.00 0.00 85 1014.4
20260503072526 0 0 0.0 0.0 0.00 0.00 0.00 82 1014.2
20260503072004 0 0 0.0 0.0 0.00 0.00 0.00 82 1014.2
20260503071504 0 0 0.0 0.0 0.00 0.00 0.00 82 1014.1
20260503071025 0 0 0.0 0.0 0.00 0.00 0.00 81 1014.1
20260503070504 0 0 0.0 0.0 0.00 0.00 0.00 81 1014.1
20260503055025 2 281 1.6 3.2 0.00 0.00 0.00 74 1014.2
20260503054525 2 280 1.6 3.2 0.00 0.00 0.00 74 1014.2
20260503054004 3 276 1.6 3.2 0.00 0.00 0.00 74 1014.2
20260503053505 3 272 1.6 4.8 0.00 0.00 0.00 74 1014.3
20260503053004 3 274 0.0 4.8 0.00 0.00 0.00 74 1014.3
20260503052504 3 282 0.0 3.2 0.00 0.00 0.00 74 1014.3
20260503052004 3 0 0.0 0.0 0.00 0.00 0.00 74 1014.3
20260503051504 3 0 0.0 0.0 0.00 0.00 0.00 74 1014.3
20260503051004 3 264 0.0 1.6 0.00 0.00 0.00 74 1014.3
20260503050504 3 263 1.6 1.6 0.00 0.00 0.00 74 1014.4
20260503050005 3 265 1.6 3.2 0.00 0.00 0.00 73 1014.4
20260503045505 3 272 1.6 6.4 0.00 0.00 0.00 73 1014.5
20260503045005 3 275 1.6 6.4 0.00 0.00 0.00 73 1014.5
20260503044504 3 277 0.0 4.8 0.00 0.00 0.00 73 1014.5
20260503044004 3 278 0.0 4.8 0.00 0.00 0.00 72 1014.4
20260503043504 3 0 0.0 0.0 0.00 0.00 0.00 72 1014.5
20260503043005 3 272 0.0 3.2 0.00 0.00 0.00 72 1014.4
20260503042504 3 272 1.6 3.2 0.00 0.00 0.00 72 1014.5
20260503042004 3 286 1.6 3.2 0.00 0.00 0.00 71 1014.5
20260503041504 3 282 1.6 3.2 0.00 0.00 0.00 70 1014.4
20260503041004 3 277 3.2 3.2 0.00 0.00 0.00 70 1014.5
20260503040504 3 279 3.2 4.8 0.00 0.00 0.00 70 1014.5
20260503040029 3 284 3.2 4.8 0.00 0.00 0.00 70 1014.5
20260503035525 3 287 3.2 4.8 0.00 0.00 0.00 69 1014.5
20260503035004 3 283 1.6 8.0 0.00 0.00 0.00 69 1014.6
20260503034504 3 278 1.6 8.0 0.00 0.00 0.00 69 1014.5
20260503034005 3 278 1.6 6.4 0.00 0.00 0.00 70 1014.5
20260503033504 4 278 1.6 6.4 0.00 0.00 0.00 69 1014.5
20260503033005 4 281 3.2 6.4 0.00 0.00 0.00 69 1014.5
20260503032505 4 281 3.2 6.4 0.00 0.00 0.00 68 1014.5
20260503032004 4 278 3.2 4.8 0.00 0.00 0.00 68 1014.6
20260503031504 4 279 3.2 4.8 0.00 0.00 0.00 68 1014.6